Flag for Germany Weather past 2 weeks in Eisenhüttenstadt, Brandenburg, Germany

Now
57 °F

Overcast.


Feels Like: 56 °F
Forecast: 51 / 67 °F
Wind: 7 mph from Southwest

Location: Lindenberg

Current Time: May 28, 2015 at 10:49:54 AM

Latest Report: May 28, 2015 at 10:00 AM


Visibility: 25 mi

Pressure: 30.02 "Hg

Humidity: 52%

Dew point: 39 °F

Location of EisenhüttenstadtLocation

Historic Weather in Eisenhüttenstadt — Graph

°F

Eisenhüttenstadt temperature yesterday

Maximum temperature yesterday: 56 °F (at 3:00 PM)
Minimum temperature yesterday: 44 °F (at 6:00 AM)
Average temperature yesterday: 51 °F

Past Weeks' High & Low Weather Summary

 TemperatureHumidityPressure
High69 °F (May 18, 6:00 PM)97% (May 15, 6:00 AM)30.31 "Hg (May 15, 6:00 AM)
Low39 °F (May 15, 6:00 AM)25% (May 24, 6:00 PM)29.60 "Hg (May 19, 4:00 AM)
Average55 °F63%30.01 "Hg
* Reported May 13 10:00 AM — May 28 10:00 AM, Eisenhüttenstadt, Weather by CustomWeather, © 2015

Note: Actual official high and low records may vary slightly from our data, if they occured in-between our weather recording intervals... More about our weather records

Advertising

Eisenhüttenstadt weather history for previous 24 hours

 ConditionsComfort  
Time TempWeatherWind HumidityBarometerVisibility
10:00 AM
Thu, May 28
57 °FOvercast.7 mph52%30.02 "Hg25 mi
9:00 AM55 °FPartly sunny.3 mph63%30.03 "Hg25 mi
8:00 AM50 °FScattered clouds.3 mph74%30.04 "Hg19 mi
7:00 AM45 °FScattered clouds.2 mph87%30.05 "Hg19 mi
6:00 AM42 °FScattered clouds.2 mph89%30.06 "Hg22 mi
4:00 AM43 °FClear.2 mph85%30.07 "Hg25 mi
3:00 AM44 °FClear.2 mph83%30.08 "Hg25 mi
2:00 AM45 °FClear.2 mph83%30.09 "Hg25 mi
1:00 AM46 °FClear.2 mph79%30.10 "Hg25 mi
12:00 AM49 °FPassing clouds.3 mph70%30.10 "Hg25 mi
10:00 PM
Wed, May 27
53 °FOvercast.2 mph63%30.11 "Hg25 mi
9:00 PM53 °FPartly sunny.2 mph62%30.10 "Hg25 mi
8:00 PM54 °FOvercast.2 mph56%30.10 "Hg25 mi
7:00 PM55 °FOvercast.3 mph53%30.11 "Hg25 mi
6:00 PM55 °FOvercast.3 mph55%30.11 "Hg25 mi
4:00 PM55 °FOvercast.5 mph56%30.11 "Hg25 mi
3:00 PM56 °FOvercast.6 mph53%30.11 "Hg25 mi
2:00 PM53 °FOvercast.7 mph61%30.12 "Hg25 mi
1:00 PM52 °FSprinkles. Overcast.5 mph69%30.12 "Hg25 mi
12:00 PM51 °FOvercast.5 mph68%30.12 "Hg12 mi
10:00 AM50 °FOvercast.5 mph73%30.12 "Hg9 mi
Weather by CustomWeather, © 2015

See weather overviewHow to use our weather pages